Regional Weather Roundup
Issued by NWS

Home | Current Version | Previous Version | Graphics & Text | Print | Product List | Glossary On
Versions: 1 2 3 4 5 6 7 8 9 10 11 12 13 14 15 16 17 18 19 20 21 22 23 24 25 26 27 28 29 30 31 32 33 34 35 36 37 38 39 40 41 42 43 44 45 46 47 48 49 50
000
ASUS43 KIND 231159
RWRIN

WEATHER ROUNDUP FOR INDIANA
NATIONAL WEATHER SERVICE INDIANAPOLIS IN
800 AM EDT WED JUL 23 2014

NOTE: "FAIR" INDICATES FEW OR NO CLOUDS BELOW 12,000 FEET WITH NO
SIGNIFICANT WEATHER AND/OR OBSTRUCTIONS TO VISIBILITY.

* - STATION DOES NOT REPORT WEATHER SUCH AS PRECIPITATION OR FOG.

+ - STATION NOT QUALITY CONTROLLED BY THE NATIONAL WEATHER SERVICE.
    USE DATA WITH CAUTION...ESPECIALLY DEWPOINT AND RELATIVE
    HUMIDITY OBSERVATIONS.

INZ001>003-010>013-019-020-231300-
NORTHWEST INDIANA

CITY           SKY/WX    TMP DP  RH WIND       PRES   REMARKS
GARY /AIRPORT/ MOSUNNY   64  59  82 N17G29    30.10R
VALPARAISO     PTSUNNY   63  60  90 N10G23    30.06R
6HR MIN TEMP:  63; 6HR MAX TEMP:  77; 6HR PCP:  0.30;


$$

LMZ046-743>745-231300-
SOUTHERN LAKE MICHIGAN

STATION/POSITION TIME  TEMP WIND        PRES
                       AIR  DIR/SP/G
                 (UTC) (F)  (DEG/KT/KT) (MB)
MICHIGAN CITY    1100   65  360/ 26/ 30   N/A

$$

INZ004-005-014>016-021>024-231300-
NORTH CENTRAL INDIANA

CITY           SKY/WX    TMP DP  RH WIND       PRES   REMARKS
GOSHEN         CLOUDY    70  68  93 N9        30.02R FOG
6HR MIN TEMP:  69; 6HR MAX TEMP:  71; 6HR PCP:  0.14;

SOUTH BEND     CLOUDY    64  58  80 N21       30.05R
6HR MIN TEMP:  64; 6HR MAX TEMP:  73; 6HR PCP:  0.22;

WARSAW +       CLOUDY    68  68 100 N7        30.02R FOG

$$

INZ006>009-017-018-025>027-231300-
NORTHEAST INDIANA

CITY           SKY/WX    TMP DP  RH WIND       PRES   REMARKS
ANGOLA *+      CLOUDY    68  59  73 N5        30.01S
FORT WAYNE     CLOUDY    69  67  93 CALM      30.01R
6HR MIN TEMP:  69; 6HR MAX TEMP:  78; 6HR PCP:  0.18;


$$

INZ028-029-035-036-043>045-051>053-231300-
WEST CENTRAL INDIANA

CITY           SKY/WX    TMP DP  RH WIND       PRES   REMARKS
GREENCASTLE +  PTSUNNY   72  68  88 SE6       30.04R
LAFAYETTE      CLOUDY    71  69  93 N9        30.03R FOG
6HR MIN TEMP:  70; 6HR MAX TEMP:  73; 6HR PCP:  0.09;

TERRE HAUTE    CLOUDY    74  70  87 SW6       30.03R
6HR MIN TEMP:  69; 6HR MAX TEMP:  74;


$$

INZ030>032-037>040-046>048-054>057-064-065-231300-
CENTRAL INDIANA

CITY           SKY/WX    TMP DP  RH WIND       PRES   REMARKS
INDIANAPOLIS   PTSUNNY   72  68  87 S16       29.98F
6HR MIN TEMP:  72; 6HR MAX TEMP:  75; 6HR PCP:  0.03;

-EAGLE CREEK   PTSUNNY   72  68  87 SE8       30.00F FOG
6HR MIN TEMP:  70; 6HR MAX TEMP:  75; 6HR PCP:  0.43;

KOKOMO *+      CLOUDY    70  66  88 W9        30.04R
MT COMFORT *+  PTSUNNY   70 N/A N/A S9        29.99F
SHELBYVILLE    PTSUNNY   71  67  87 S7        30.02S
6HR MIN TEMP:  71; 6HR MAX TEMP:  74; 6HR PCP:  0.07;


$$

INZ033-034-041-042-049-050-058-059-231300-
EAST CENTRAL INDIANA

CITY           SKY/WX    TMP DP  RH WIND       PRES   REMARKS
MUNCIE         LGT RAIN  71  66  84 W7        30.02R
6HR MIN TEMP:  71; 6HR MAX TEMP:  75; 6HR PCP:  0.02;


$$

INZ060-061-067>069-081>083-085>088-231300-
SOUTHWEST INDIANA

CITY           SKY/WX    TMP DP  RH WIND       PRES   REMARKS
EVANSVILLE     SUNNY     75  69  81 N3        30.08R
6HR MIN TEMP:  74; 6HR MAX TEMP:  76;

HUNTINGBURG *+ MOSUNNY   72  70  94 NW3       30.08R
6HR MIN TEMP:  70; 6HR MAX TEMP:  73;


$$

INZ062-063-066-070>080-084-089>092-231300-
SOUTH CENTRAL AND SOUTHEAST INDIANA

CITY           SKY/WX    TMP DP  RH WIND       PRES   REMARKS
BLOOMINGTON    CLOUDY    73  69  87 S3        30.05R FOG
6HR MIN TEMP:  71; 6HR MAX TEMP:  74;


$$




USA.gov is the U.S. government's official web portal to all federal, state and local government web resources and services.